Regional Weather Roundup
Issued by NWS

Home | Current Version | Previous Version | Text Only | Print | Product List | Glossary On
Versions: 1 2 3 4 5 6 7 8 9 10 11 12 13 14 15 16 17 18 19 20 21 22 23 24 25 26 27 28 29 30 31 32 33 34 35 36 37 38 39 40 41 42 43 44 45 46 47 48 49 50
000
ASUS46 KSEW 241710
RWRWA

WASHINGTON REGIONAL WEATHER ROUNDUP
NATIONAL WEATHER SERVICE SEATTLE WA
900 AM PST MON NOV 24 2014

NOTE:"FAIR" INDICATES FEW OR NO CLOUDS BELOW 12,000 FEET WITH NO
SIGNIFICANT WEATHER AND/OR OBSTRUCTIONS TO VISIBILITY.

WAZ505-507>509-241800-
SEATTLE, TACOMA, EVERETT, AND VICINITY

CITY           SKY/WX    TMP DP  RH WIND       PRES   REMARKS
EVERETT        CLOUDY    42  38  85 S12       30.32R
BOEING FIELD   CLOUDY    44  36  73 SE8       30.36R
RENTON         CLOUDY    41  36  82 SE6       30.36R
SEATAC AIRPORT CLOUDY    42  34  73 CALM      30.35R
JBLM-MCCHORD   PTSUNNY   35  35  99 E1        30.35R
PUYALLUP       NOT AVBL
JBLM-FT LEWIS  PTSUNNY   35  35  99 SE3       30.34S
TACOMA NARROWS PTSUNNY   42  39  89 CALM      30.35R
$$

WAZ001-503-506-510-514-515-241800-
NORTH INTERIOR

CITY           SKY/WX    TMP DP  RH WIND       PRES   REMARKS
BELLINGHAM     CLOUDY    44  40  85 CALM      30.29R
FRIDAY HARBOR  CLOUDY    47  41  80 SE13G22   30.29S
EASTSOUND      CLOUDY    48  41  76 S8        30.26F
PORT ANGELES   CLOUDY    44  37  76 VRB3      30.26F
NAS WHIDBEY    CLOUDY    49  40  71 SE13      30.30R
BURLINGTON     PTSUNNY   45  41  87 E7        30.31S
$$

WAZ020-022-039-040-504-511-512-241800-
SOUTHWEST INTERIOR

CITY           SKY/WX    TMP DP  RH WIND       PRES   REMARKS
SHELTON        CLOUDY    35  34  96 CALM      30.32S
OLYMPIA        PTSUNNY   43  41  93 SW5       30.35R
CHEHALIS       CLOUDY    45  41  87 S8        30.35S
KELSO          CLOUDY    48  43  81 SE5       30.41R
VANCOUVER      PTSUNNY   48  46  93 SE3       30.37F
SCAPPOOSE, OR  CLOUDY    48  47  96 CALM      30.37F FOG
PORTLAND, OR   PTSUNNY   49  48  97 SE6       30.38S
$$

WAZ021-516-517-241800-
WASHINGTON COAST

CITY           SKY/WX    TMP DP  RH WIND       PRES   REMARKS
FORKS          CLOUDY    47  41  80 SE7       30.24F
HOQUIAM        CLOUDY    43  42  97 NE9       30.32F
ASTORIA, OR    CLOUDY    46  44  93 E6        30.33R
$$

WAZ019-023-024-040-518-519-241800-
CASCADE MOUNTAINS AND COLUMBIA GORGE

CITY           SKY/WX    TMP DP  RH WIND       PRES   REMARKS
STAMPEDE PASS  NOT AVBL
TROUTDALE, OR  PTSUNNY   49  44  83 E9        30.38R
THE DALLES, OR PTSUNNY   41  37  86 CALM      30.41R
$$

WAZ026-027-041>044-520-521-241800-
EAST SLOPES

CITY           SKY/WX    TMP DP  RH WIND       PRES   REMARKS
OMAK           CLOUDY    27  25  92 CALM      30.34R
WENATCHEE      PTSUNNY   36  28  73 E3        30.33R
ELLENSBURG     PTSUNNY   35  30  82 CALM      30.33S
YAKIMA         CLOUDY    33  27  78 CALM      30.37S
$$

WAZ028-034-035-241800-
COLUMBIA BASIN

CITY           SKY/WX    TMP DP  RH WIND       PRES   REMARKS
EPHRATA        CLOUDY    34  30  85 N3        30.34R
MOSES LAKE     CLOUDY    33  29  85 S5        30.35R
PASCO          MOSUNNY   35  34  96 N3        30.40R
HERMISTON, OR  SUNNY     41  36  82 S5        30.39R
$$

WAZ036>038-241800-
NORTHEAST WASHINGTON

CITY           SKY/WX    TMP DP  RH WIND       PRES   REMARKS
SPOKANE GEIGER CLOUDY    30  28  92 S8        30.34R
SPOKANE FELTS  CLOUDY    31  28  89 NE3       30.37R
FAIRCHILD AFB  CLOUDY    29  29  97 SE6       30.34R
COEURDALENE,ID PTSUNNY   34  30  86 S6        30.34R
DEER PARK      CLOUDY    26  25  96 CALM      30.35R
$$

WAZ029>033-241800-
SOUTHEAST WASHINGTON

CITY           SKY/WX    TMP DP  RH WIND       PRES   REMARKS
PULLMAN        MOSUNNY   35  31  85 E5        30.38R
LEWISTON, ID   MOSUNNY   38  31  76 CALM      30.40R
WALLA WALLA    MOSUNNY   47  36  65 S10       30.38R
PENDLETON, OR  MOSUNNY   39  33  79 S7        30.38R
$$



USA.gov is the U.S. government's official web portal to all federal, state and local government web resources and services.